Location: Earls Croome
(52.0667°N, 2.2000°W)
Time: 19:15:15
(UTC+00:00)

Cosmos 1892 - Pass Details

Date: 17 November 2019
Orbit: 504 x 525 km, 82.5° (Epoch: 07 December)

Event Time Altitude Azimuth Distance (km) Brightness Sun altitude
Rises 05:32:36 0° 198° (SSW) 2,609 6.2 -18.0°
Reaches altitude 10° 05:34:45 10° 203° (SSW) 1,726 5.2 -17.7°
Maximum altitude 05:38:28 59° 283° (WNW) 592 2.6 -17.1°
Drops below altitude 10° 05:42:14 10° 4° (N) 1,733 5.3 -16.5°
Sets 05:44:23 0° 8° (N) 2,622 6.3 -16.2°
